FW7665 Weather Reports


Display with metric or nautical units.
time (UTC)temp
F
wind
direction
speed
MPH
gust
MPH
rain 1hr
in
rain 24hr
in
rain mn
in
humidity
%
barometer
mb
20260510172711 59 78 2.0 6.0 0.00 0.00 0.00 36 1024.9
20260510171832 59 96 3.0 7.0 0.00 0.00 0.00 33 1024.9
20260510170911 58 98 3.0 8.0 0.00 0.00 0.00 32 1024.9
20260510170011 58 114 5.0 10.0 0.00 0.00 0.00 33 1024.9
20260510165411 57 94 3.0 10.0 0.00 0.00 0.00 34 1024.9
20260510164511 57 84 2.0 7.0 0.00 0.00 0.00 34 1024.9
20260510163611 57 91 2.0 9.0 0.00 0.00 0.00 36 1024.9
20260510162711 56 92 2.0 4.0 0.00 0.00 0.00 38 1024.9
20260510161810 55 106 4.0 9.0 0.00 0.00 0.00 38 1024.9
20260510160910 54 99 2.0 4.0 0.00 0.00 0.00 38 1024.9
20260510160017 52 44 2.0 5.0 0.00 0.00 0.00 38 1025.0
20260510155410 52 51 2.0 4.0 0.00 0.00 0.00 40 1025.0
20260510154511 51 31 1.0 4.0 0.00 0.00 0.00 41 1025.0
20260510153611 50 77 1.0 3.0 0.00 0.00 0.00 46 1025.0
20260510152711 49 78 2.0 3.0 0.00 0.00 0.00 44 1025.0
20260510151810 48 80 1.0 3.0 0.00 0.00 0.00 48 1025.0
20260510150910 47 97 2.0 4.0 0.00 0.00 0.00 53 1025.0
20260510150017 45 80 2.0 6.0 0.00 0.00 0.00 58 1025.7
20260510145410 44 62 1.0 4.0 0.00 0.00 0.00 63 1025.7
20260510144510 42 309 0.0 3.0 0.00 0.00 0.00 68 1025.7
20260510143611 41 0 0.0 0.0 0.00 0.00 0.00 74 1025.7
20260510142711 40 0 0.0 0.0 0.00 0.00 0.00 79 1025.7
20260510141810 38 0 0.0 0.0 0.00 0.00 0.00 83 1025.7
20260510140910 38 0 0.0 0.0 0.00 0.00 0.00 85 1025.7
20260510140010 37 0 0.0 0.0 0.00 0.00 0.00 85 1025.7
20260510135410 36 0 0.0 0.0 0.00 0.00 0.00 85 1025.7
20260510134510 36 0 0.0 0.0 0.00 0.00 0.00 85 1025.7
20260510133610 36 0 0.0 0.0 0.00 0.00 0.00 86 1025.7
20260510132710 35 0 0.0 0.0 0.00 0.00 0.00 86 1025.7
20260510131810 34 0 0.0 0.0 0.00 0.00 0.00 87 1025.7
20260510130910 34 0 0.0 0.0 0.00 0.00 0.00 87 1025.7
20260510130010 34 0 0.0 0.0 0.00 0.00 0.00 87 1024.7
20260510125410 34 0 0.0 0.0 0.00 0.00 0.00 87 1024.7
20260510124510 34 0 0.0 0.0 0.00 0.00 0.00 86 1024.7
20260510123610 34 0 0.0 0.0 0.00 0.00 0.00 85 1024.7
20260510122710 34 0 0.0 0.0 0.00 0.00 0.00 85 1024.7
20260510121810 35 0 0.0 0.0 0.00 0.00 0.00 84 1024.7
20260510120910 35 0 0.0 0.0 0.00 0.00 0.00 84 1024.7
20260510120031 36 0 0.0 0.0 0.00 0.00 0.00 83 1024.7
20260510115410 36 0 0.0 0.0 0.00 0.00 0.00 83 1024.7
20260510114510 36 0 0.0 0.0 0.00 0.00 0.00 84 1024.7
20260510113610 36 0 0.0 0.0 0.00 0.00 0.00 84 1024.7
20260510112709 36 0 0.0 0.0 0.00 0.00 0.00 84 1024.7
20260510111809 36 0 0.0 0.0 0.00 0.00 0.00 84 1024.7
20260510110910 36 0 0.0 0.0 0.00 0.00 0.00 84 1024.7
20260510110031 36 0 0.0 0.0 0.00 0.00 0.00 84 1024.3
20260510105410 36 255 0.0 2.0 0.00 0.00 0.00 84 1024.3
20260510104510 36 263 0.0 3.0 0.00 0.00 0.00 84 1024.3
20260510103630 36 59 0.0 3.0 0.00 0.00 0.00 84 1024.3
20260510102709 36 61 0.0 2.0 0.00 0.00 0.00 84 1024.3
20260510101810 36 67 0.0 2.0 0.00 0.00 0.00 84 1024.3
20260510100909 36 74 0.0 2.0 0.00 0.00 0.00 85 1024.3
20260510095409 36 84 0.0 1.0 0.00 0.00 0.00 85 1023.7
20260510094509 36 0 0.0 0.0 0.00 0.00 0.00 85 1023.7
20260510093609 36 0 0.0 0.0 0.00 0.00 0.00 84 1023.7
20260510092709 36 0 0.0 0.0 0.00 0.00 0.00 83 1023.7
20260510091809 36 0 0.0 0.0 0.00 0.00 0.00 83 1023.7
20260510090909 37 0 0.0 0.0 0.00 0.00 0.00 83 1023.7
20260510090010 37 0 0.0 0.0 0.00 0.00 0.00 83 1023.6
20260510085409 37 0 0.0 0.0 0.00 0.00 0.00 83 1023.6
20260510084509 38 0 0.0 0.0 0.00 0.00 0.00 83 1023.6
20260510083609 38 0 0.0 0.0 0.00 0.00 0.00 82 1023.6
20260510082730 38 0 0.0 0.0 0.00 0.00 0.00 81 1023.6
20260510081809 39 0 0.0 0.0 0.00 0.00 0.00 80 1023.6
20260510080909 39 0 0.0 0.0 0.00 0.00 0.00 80 1023.6
20260510080009 40 0 0.0 0.0 0.00 0.00 0.00 79 1023.7
20260510075409 41 0 0.0 0.0 0.00 0.00 0.00 79 1023.7
20260510074509 41 0 0.0 0.0 0.00 0.00 0.00 79 1024.1
20260510073609 41 84 0.0 3.0 0.00 0.00 0.00 79 1024.1
20260510072730 41 84 0.0 2.0 0.00 0.00 0.00 79 1024.1
20260510071830 41 84 0.0 1.0 0.00 0.00 0.00 79 1024.1
20260510070910 41 0 0.0 0.0 0.00 0.00 0.00 79 1024.1
20260510070019 41 0 0.0 0.0 0.00 0.00 0.00 78 1024.1
20260510065409 41 0 0.0 0.0 0.00 0.00 0.00 78 1024.1
20260510064530 42 84 0.0 1.0 0.00 0.00 0.00 78 1023.9
20260510063609 42 84 0.0 1.0 0.00 0.00 0.00 78 1023.9
20260510062709 42 84 2.0 3.0 0.00 0.00 0.00 77 1023.9
20260510061809 42 98 2.0 4.0 0.00 0.00 0.00 77 1023.9
20260510060909 42 117 1.0 3.0 0.00 0.00 0.00 77 1023.9
20260510060035 42 117 1.0 3.0 0.00 0.00 0.00 77 1023.9
20260510055408 42 118 2.0 4.0 0.00 0.00 0.00 77 1023.9
20260510054508 42 127 2.0 5.0 0.00 0.00 0.00 77 1024.3
20260510053609 42 130 1.0 3.0 0.00 0.00 0.00 77 1024.3
20260510052708 42 0 0.0 0.0 0.00 0.00 0.00 77 1024.3
20260510051808 42 0 0.0 0.0 0.00 0.00 0.00 77 1024.3
20260510050909 42 130 0.0 2.0 0.00 0.00 0.00 76 1024.3
20260510050009 42 130 1.0 3.0 0.00 0.00 0.00 76 1024.3
20260510045408 42 130 0.0 2.0 0.00 0.00 0.00 77 1024.3
20260510044529 42 141 3.0 8.0 0.00 0.00 0.00 77 1022.8
20260510043608 42 138 3.0 8.0 0.00 0.00 0.00 76 1022.8
20260510042729 42 118 2.0 6.0 0.00 0.00 0.00 75 1022.8
20260510041808 42 132 2.0 7.0 0.00 0.00 0.00 74 1022.8
20260510040908 42 123 2.0 9.0 0.00 0.00 0.00 74 1022.8
20260510040008 43 134 5.0 13.0 0.00 0.00 0.00 74 1022.8
20260510035408 43 131 4.0 13.0 0.00 0.00 0.00 74 1022.8
20260510034529 43 108 2.0 8.0 0.00 0.00 0.00 74 1022.8
20260510033609 43 153 2.0 8.0 0.00 0.00 0.00 74 1022.8
20260510032708 43 131 3.0 9.0 0.00 0.00 0.00 73 1022.8
20260510031808 44 231 1.0 9.0 0.00 0.00 0.00 72 1022.8
20260510030932 44 86 2.0 6.0 0.00 0.00 0.00 72 1022.8
20260510030029 44 115 2.0 8.0 0.00 0.00 0.00 70 1022.8
20260510025408 44 78 1.0 6.0 0.00 0.00 0.00 70 1022.8
20260510024508 44 71 2.0 5.0 0.00 0.00 0.00 69 1018.9
20260510023629 45 245 2.0 7.0 0.00 0.00 0.00 67 1018.9
20260510022707 46 257 3.0 7.0 0.00 0.00 0.00 64 1018.9
20260510021808 47 121 5.0 12.0 0.00 0.00 0.00 59 1018.9
20260510020908 50 138 6.0 15.0 0.00 0.00 0.00 52 1018.9
20260510020008 52 271 3.0 9.0 0.00 0.00 0.00 45 1018.9
20260510015407 51 267 2.0 8.0 0.00 0.00 0.00 35 1018.9
20260510014508 50 0 0.0 0.0 0.00 0.00 0.00 32 1018.0
20260510013607 51 288 0.0 2.0 0.00 0.00 0.00 30 1018.0
20260510012707 53 288 1.0 2.0 0.00 0.00 0.00 23 1018.0
20260510011808 54 255 1.0 5.0 0.00 0.00 0.00 21 1018.0
20260510010907 55 241 2.0 8.0 0.00 0.00 0.00 19 1018.0
20260510010008 56 247 2.0 7.0 0.00 0.00 0.00 22 1018.0
20260510005428 56 248 2.0 7.0 0.00 0.00 0.00 20 1018.0
20260510004507 57 217 2.0 9.0 0.00 0.00 0.00 23 1017.4
20260510003628 56 199 2.0 9.0 0.00 0.00 0.00 24 1017.4
20260510002708 57 248 2.0 8.0 0.00 0.00 0.00 23 1017.4
20260510001807 58 293 2.0 10.0 0.00 0.00 0.00 22 1017.4
20260510000908 58 279 2.0 6.0 0.00 0.00 0.00 24 1017.4
20260510000029 59 251 2.0 6.0 0.00 0.00 0.00 25 1017.4
20260509235407 59 259 2.0 11.0 0.00 0.00 0.00 21 1017.4
20260509234507 60 246 3.0 10.0 0.00 0.00 0.00 23 1016.9
20260509233607 60 239 2.0 6.0 0.00 0.00 0.00 21 1016.9
20260509232712 60 280 3.0 8.0 0.00 0.00 0.00 21 1016.9
20260509231833 60 229 3.0 11.0 0.00 0.00 0.00 20 1016.9
20260509230913 60 262 3.0 9.0 0.00 0.00 0.00 21 1016.9
20260509230012 61 251 2.0 7.0 0.00 0.00 0.00 22 1016.9
20260509225412 61 247 2.0 7.0 0.00 0.00 0.00 20 1016.9
20260509224512 60 277 3.0 9.0 0.00 0.00 0.00 22 1016.9
20260509223612 61 246 3.0 9.0 0.00 0.00 0.00 20 1016.9
20260509222733 61 261 3.0 8.0 0.00 0.00 0.00 21 1016.9
20260509221812 61 243 3.0 12.0 0.00 0.00 0.00 21 1016.9
20260509220914 61 316 2.0 8.0 0.00 0.00 0.00 21 1016.9
20260509220033 62 280 2.0 6.0 0.00 0.00 0.00 22 1016.9
20260509215432 62 240 2.0 6.0 0.00 0.00 0.00 21 1016.9
20260509214533 62 228 3.0 8.0 0.00 0.00 0.00 19 1016.9
20260509213612 63 273 3.0 9.0 0.00 0.00 0.00 19 1016.9
20260509212712 63 265 3.0 9.0 0.00 0.00 0.00 22 1016.9
20260509211812 62 255 2.0 5.0 0.00 0.00 0.00 21 1016.9
20260509210911 64 254 3.0 12.0 0.00 0.00 0.00 21 1016.9
20260509210012 63 254 2.0 8.0 0.00 0.00 0.00 22 1016.9
20260509205411 63 269 2.0 6.0 0.00 0.00 0.00 23 1016.9
20260509204511 63 254 3.0 9.0 0.00 0.00 0.00 21 1016.9
20260509203612 63 264 2.0 6.0 0.00 0.00 0.00 22 1016.9
20260509202732 63 30 3.0 7.0 0.00 0.00 0.00 25 1016.9
20260509201833 65 50 3.0 11.0 0.00 0.00 0.00 20 1016.9
20260509200911 63 272 3.0 17.0 0.00 0.00 0.00 23 1016.9
20260509200014 65 264 3.0 9.0 0.00 0.00 0.00 21 1016.9
20260509195435 66 314 3.0 10.0 0.00 0.00 0.00 24 1016.9
20260509194511 66 251 4.0 12.0 0.00 0.00 0.00 21 1017.9
20260509193611 66 279 3.0 9.0 0.00 0.00 0.00 20 1017.9
20260509192732 66 282 4.0 11.0 0.00 0.00 0.00 24 1017.9
20260509191811 66 262 3.0 11.0 0.00 0.00 0.00 22 1017.9
20260509190911 66 264 4.0 9.0 0.00 0.00 0.00 20 1017.9
20260509190011 65 249 5.0 10.0 0.00 0.00 0.00 19 1017.9
20260509185432 64 267 4.0 10.0 0.00 0.00 0.00 21 1017.9
20260509184511 65 262 5.0 15.0 0.00 0.00 0.00 19 1017.9
20260509183611 66 306 4.0 16.0 0.00 0.00 0.00 19 1017.9
20260509182711 66 24 3.0 9.0 0.00 0.00 0.00 23 1017.9
20260509181811 65 284 4.0 14.0 0.00 0.00 0.00 21 1017.9
20260509180911 64 267 4.0 11.0 0.00 0.00 0.00 22 1017.9
20260509180032 64 254 5.0 11.0 0.00 0.00 0.00 21 1017.9
20260509175411 64 230 4.0 10.0 0.00 0.00 0.00 24 1017.9
20260509174510 64 20 4.0 10.0 0.00 0.00 0.00 26 1017.9
20260509173611 63 287 4.0 10.0 0.00 0.00 0.00 24 1017.9